Date String (YYYY-MM-DD hh:mm:ss) UTC,Instrument flags,Ambient pressure (hPa),Sample flow (lpm),Bypass flow (lpm),Sample temperature (°C),Ambient temperature (°C),ASC tube jacket temperature (°C),LED temperature (°C),Box temperature (°C),Sample RH (%),Span deviation,Mass concentration (μg/m³),Mass concentration (μg/m³),Mass concentration (μg/m³)
DateTimeUTC,F1_M11,P_M11,Q1_M11,Q2_M11,T1_M11,T2_M11,T3_M11,T4_M11,T5_M11,U1_M11,ZSPAN_M11,X0_M11,X2_M11,X1_M11
2022-05-10 00:00:00,,0815.2,5.00,0.00,29.4,27.9,00.0,38.5,31.2,16.9,0000.0,0059.72,0012.57,0003.68
2022-05-10 00:01:00,,0815.2,5.00,0.00,29.4,28.1,00.0,38.5,31.2,16.9,0000.0,0059.36,0012.62,0003.68
2022-05-10 00:02:00,,0815.3,4.99,0.00,29.5,28.2,00.0,38.5,31.3,17.0,0000.0,0058.84,0012.56,0003.69
2022-05-10 00:03:00,,0815.3,4.99,0.00,29.5,28.3,00.0,38.5,31.3,17.0,0000.0,0059.65,0012.50,0003.69
2022-05-10 00:04:00,,0815.3,5.00,0.00,29.5,28.4,00.0,38.5,31.3,17.1,0000.0,0059.67,0012.53,0003.70
2022-05-10 00:05:00,,0815.4,5.00,0.00,29.5,28.5,00.0,38.5,31.3,16.9,0000.0,0058.79,0012.52,0003.70
2022-05-10 00:06:00,,0815.3,5.00,0.00,29.5,28.6,00.0,38.5,31.3,16.6,0000.0,0059.63,0012.54,0003.72
2022-05-10 00:07:00,,0815.4,4.99,0.00,29.5,28.6,00.0,38.5,31.3,17.0,0000.0,0061.10,0012.43,0003.72
2022-05-10 00:08:00,,0815.4,5.00,0.00,29.5,28.7,00.0,38.5,31.3,17.1,0000.0,0060.99,0012.35,0003.70
2022-05-10 00:09:00,,0815.6,4.99,0.00,29.5,28.7,00.0,38.5,31.4,17.0,0000.0,0060.29,0012.38,0003.69
2022-05-10 00:10:00,,0815.6,5.00,0.00,29.6,28.8,00.0,38.5,31.4,16.7,0000.0,0059.50,0012.40,0003.69
2022-05-10 00:11:00,,0815.6,5.02,0.00,29.6,28.8,00.0,38.5,31.4,16.8,0000.0,0060.18,0012.31,0003.67
2022-05-10 00:12:00,,0816.0,5.00,0.00,29.6,28.8,00.0,38.5,31.4,17.0,0000.0,0061.45,0012.29,0003.66
2022-05-10 00:13:00,,0815.8,5.01,0.00,29.6,28.9,00.0,38.5,31.4,17.2,0000.0,0062.99,0012.38,0003.65
2022-05-10 00:14:00,,0815.8,5.00,0.00,29.6,28.9,00.0,38.5,31.4,16.6,0000.0,0062.30,0012.41,0003.66
2022-05-10 00:15:00,,0816.0,5.00,0.00,29.6,28.9,00.0,38.5,31.4,16.4,0000.0,0061.41,0012.33,0003.65
2022-05-10 00:16:00,,0815.8,5.00,0.00,29.6,28.9,00.0,38.5,31.4,16.3,0000.0,0061.67,0012.32,0003.66
2022-05-10 00:17:00,,0816.0,5.00,0.00,29.7,29.0,00.0,38.6,31.5,16.4,0000.0,0061.56,0012.27,0003.65
2022-05-10 00:18:00,,0816.0,5.01,0.00,29.7,29.0,00.0,38.6,31.5,16.6,0000.0,0059.78,0012.31,0003.66
2022-05-10 00:19:00,,0816.0,4.99,0.00,29.7,29.0,00.0,38.6,31.5,16.7,0000.0,0060.02,0012.33,0003.70
2022-05-10 00:20:00,,0816.0,5.01,0.00,29.7,29.1,00.0,38.6,31.5,17.0,0000.0,0060.37,0012.32,0003.70
2022-05-10 00:21:00,,0816.0,5.00,0.00,29.7,29.1,00.0,38.6,31.5,16.9,0000.0,0060.75,0012.20,0003.70
2022-05-10 00:22:00,,0816.1,5.01,0.00,29.7,29.1,00.0,38.6,31.5,17.0,0000.0,0059.86,0012.24,0003.71
2022-05-10 00:23:00,,0815.9,4.99,0.00,29.7,29.1,00.0,38.6,31.5,17.3,0000.0,0060.32,0012.39,0003.73
2022-05-10 00:24:00,,0816.0,5.00,0.00,29.7,29.1,00.0,38.6,31.5,17.1,0000.0,0059.13,0012.57,0003.73
2022-05-10 00:25:00,,0816.0,5.01,0.00,29.8,29.1,00.0,38.6,31.6,17.0,0000.0,0060.57,0012.70,0003.74
2022-05-10 00:26:00,,0816.1,5.00,0.00,29.8,29.1,00.0,38.7,31.6,17.1,0000.0,0062.03,0012.68,0003.75
2022-05-10 00:27:00,,0816.0,5.00,0.00,29.8,29.1,00.0,38.7,31.6,17.1,0000.0,0061.46,0012.65,0003.75
2022-05-10 00:28:00,,0815.8,4.99,0.00,29.8,29.1,00.0,38.7,31.6,16.9,0000.0,0060.07,0012.55,0003.73
2022-05-10 00:29:00,,0815.5,5.00,0.00,29.8,29.1,00.0,38.7,31.6,16.9,0000.0,0059.40,0012.51,0003.72
2022-05-10 00:30:00,,0815.6,5.00,0.00,29.8,29.2,00.0,38.7,31.6,16.9,0000.0,0058.37,0012.58,0003.71
2022-05-10 00:31:00,,0815.7,5.01,0.00,29.8,29.1,00.0,38.7,31.6,16.8,0000.0,0058.64,0012.59,0003.71
2022-05-10 00:32:00,,0815.7,4.99,0.00,29.8,29.2,00.0,38.7,31.6,16.8,0000.0,0058.81,0012.68,0003.72
2022-05-10 00:33:00,,0815.7,5.01,0.00,29.8,29.2,00.0,38.7,31.6,16.7,0000.0,0057.96,0012.71,0003.73
2022-05-10 00:34:00,,0815.7,5.00,0.00,29.8,29.2,00.0,38.7,31.6,16.7,0000.0,0056.07,0012.61,0003.75
2022-05-10 00:35:00,,0815.7,5.00,0.00,29.8,29.2,00.0,38.8,31.7,16.8,0000.0,0056.60,0012.55,0003.75
2022-05-10 00:36:00,,0815.8,5.00,0.00,29.9,29.2,00.0,38.8,31.7,16.9,0000.0,0055.33,0012.40,0003.73
2022-05-10 00:37:00,,0815.8,5.00,0.00,29.9,29.2,00.0,38.8,31.7,17.0,0000.0,0054.69,0012.42,0003.72
2022-05-10 00:38:00,,0815.8,5.01,0.00,29.9,29.2,00.0,38.8,31.7,16.9,0000.0,0054.15,0012.43,0003.71
2022-05-10 00:39:00,,0815.8,5.00,0.00,29.9,29.2,00.0,38.8,31.7,17.0,0000.0,0056.43,0012.51,0003.72
2022-05-10 00:40:00,,0815.8,5.00,0.00,29.9,29.3,00.0,38.8,31.7,17.1,0000.0,0056.84,0012.46,0003.72
2022-05-10 00:41:00,,0815.8,5.00,0.00,29.9,29.3,00.0,38.8,31.7,16.9,0000.0,0057.08,0012.42,0003.71
2022-05-10 00:42:00,,0815.8,4.99,0.00,29.9,29.3,00.0,38.8,31.7,16.9,0000.0,0055.04,0012.43,0003.71
2022-05-10 00:43:00,,0815.9,5.00,0.00,29.9,29.3,00.0,38.8,31.7,17.1,0000.0,0055.19,0012.56,0003.72
2022-05-10 00:44:00,,0815.9,5.01,0.00,29.9,28.2,00.0,38.8,31.4,16.8,0000.0,0055.48,0012.47,0003.71
2022-05-10 00:45:00,,0815.9,5.00,0.00,29.8,26.2,00.0,38.8,31.0,17.0,0000.0,0057.41,0012.41,0003.69
2022-05-10 00:46:00,,0816.0,5.00,0.00,29.7,26.1,00.0,38.8,31.0,17.1,0000.0,0057.65,0012.34,0003.68
2022-05-10 00:47:00,,0816.0,5.00,0.00,29.6,26.4,00.0,38.7,31.1,17.0,0000.0,0057.76,0012.29,0003.68
2022-05-10 00:48:00,,0816.0,5.01,0.00,29.6,26.9,00.0,38.7,31.2,17.0,0000.0,0058.33,0012.31,0003.68
2022-05-10 00:49:00,,0816.0,4.99,0.00,29.6,27.3,00.0,38.7,31.3,17.0,0000.0,0060.38,0012.31,0003.67
2022-05-10 00:50:00,,0816.0,5.02,0.00,29.6,27.6,00.0,38.6,31.3,17.0,-001.3,0058.91,0012.31,0003.66
2022-05-10 00:51:00,,0816.0,5.00,0.00,29.6,27.9,00.0,38.6,31.3,17.0,-001.4,0059.83,0012.35,0003.66
2022-05-10 00:52:00,,0816.0,5.00,0.00,29.6,28.1,00.0,38.6,31.4,16.6,-001.1,0060.27,0012.33,0003.66
2022-05-10 00:53:00,,0816.0,5.00,0.00,29.6,28.3,00.0,38.6,31.4,16.4,-000.1,0062.53,0012.31,0003.64
2022-05-10 00:54:00,,0816.2,5.00,0.00,29.6,28.4,00.0,38.6,31.4,16.6,0000.0,0061.97,0012.32,0003.63
2022-05-10 00:55:00,,0816.2,5.01,0.00,29.6,28.5,00.0,38.6,31.4,16.7,0000.0,0062.73,0012.40,0003.62
2022-05-10 00:56:00,,0816.2,5.01,0.00,29.6,28.6,00.0,38.6,31.4,16.9,0000.0,0063.62,0012.46,0003.61
2022-05-10 00:57:00,,0816.2,5.00,0.00,29.6,28.7,00.0,38.6,31.4,17.1,0000.0,0063.15,0012.53,0003.61
2022-05-10 00:58:00,,0816.3,4.99,0.00,29.6,28.8,00.0,38.6,31.5,17.0,0000.0,0063.23,0012.60,0003.61
2022-05-10 00:59:00,,0816.3,4.99,0.00,29.6,28.9,00.0,38.6,31.5,16.9,0000.0,0062.46,0012.66,0003.62
